MST,Max TemperatureF,Mean TemperatureF,Min TemperatureF,Max Dew PointF,MeanDew PointF,Min DewpointF,Max Humidity, Mean Humidity, Min Humidity, Max Sea Level PressureIn, Mean Sea Level PressureIn, Min Sea Level PressureIn, Max VisibilityMiles, Mean VisibilityMiles, Min VisibilityMiles, Max Wind SpeedMPH, Mean Wind SpeedMPH, Max Gust SpeedMPH,PrecipitationIn, CloudCover, Events, WindDirDegrees
2013-2-1,28,18,7,25,19,1,92,83,73,30.13,29.98,29.83,10,7,2,23,12,28,T,7,Snow,296
2013-2-2,35,28,20,30,25,17,96,87,78,30.20,30.03,29.94,10,4,0,39,17,47,T,8,Fog-Rain-Snow,292
2013-2-3,29,23,16,22,18,14,92,83,74,30.05,29.92,29.83,10,10,6,16,6,18,0.00,3,,354
2013-2-4,39,30,20,29,25,18,92,78,64,29.97,29.78,29.68,10,9,2,23,13,28,T,6,Snow,244
2013-2-5,33,28,23,25,22,19,84,74,63,30.00,29.90,29.78,10,10,10,20,12,25,0.00,3,,270
2013-2-6,40,33,25,30,26,23,100,82,64,30.05,29.88,29.72,10,6,0,20,11,24,0.00,1,Fog,54
2013-2-7,35,27,18,28,24,16,100,89,78,30.15,30.05,29.97,10,5,0,20,7,23,0.00,3,Fog,145
2013-2-8,31,27,23,27,24,21,100,93,85,30.05,29.94,29.84,10,5,0,25,7,30,0.00,8,Fog,168
2013-2-9,37,26,15,26,19,12,96,78,59,29.95,29.87,29.82,10,7,0,12,5,13,0.00,1,Fog,300
2013-2-10,28,23,18,27,20,14,92,83,74,30.07,29.84,29.72,10,8,2,33,18,40,T,8,Rain-Snow,321
2013-2-11,30,24,17,19,16,12,84,71,58,30.11,30.01,29.88,10,10,7,23,14,28,T,5,Snow,278
2013-2-12,40,30,19,27,22,15,84,72,59,29.96,29.91,29.81,10,10,10,21,11,24,0.00,1,,275
2013-2-13,42,35,28,33,28,20,89,76,63,29.86,29.72,29.57,10,10,10,31,19,41,T,5,Snow,286
2013-2-14,30,25,20,25,20,15,88,78,68,30.32,30.10,29.80,10,7,1,33,18,43,T,8,Snow,321
2013-2-15,30,22,13,24,16,9,81,70,58,30.42,30.27,29.96,10,9,4,18,9,22,T,5,Snow,263
2013-2-16,47,38,29,31,28,24,92,73,53,29.99,29.90,29.72,10,10,10,17,10,20,T,2,,260
2013-2-17,46,38,30,31,27,16,85,69,53,29.79,29.58,29.47,10,9,4,30,14,36,0.00,6,Snow,284
2013-2-18,21,11,0,14,7,-4,88,78,67,30.37,30.05,29.79,10,8,2,31,17,40,T,7,Snow,332
2013-2-19,12,2,-8,-2,-6,-13,83,71,58,30.42,30.35,30.25,10,10,10,24,14,29,0.00,0,,98
2013-2-20,21,11,1,11,2,-6,79,62,45,30.23,30.11,29.95,10,9,2,28,20,35,0.00,2,Snow,142
2013-2-21,25,20,14,20,16,9,92,85,77,30.14,30.03,29.95,10,6,1,18,11,22,T,8,Snow,148
2013-2-22,38,27,15,25,19,13,92,72,52,30.03,29.92,29.78,10,10,7,14,8,16,T,3,Snow,191
2013-2-23,44,30,16,31,22,12,84,61,37,29.83,29.72,29.65,10,10,10,17,8,21,T,5,,202
2013-2-24,37,29,20,29,23,15,92,74,56,30.12,30.00,29.82,10,10,8,21,12,25,0.00,4,,303
2013-2-25,48,34,20,23,19,16,84,59,34,30.07,29.93,29.83,10,10,10,20,11,23,0.00,0,,207
2013-2-26,43,31,19,29,24,16,88,71,53,30.13,30.00,29.83,10,10,10,22,13,26,0.00,5,,300
2013-2-27,30,27,24,25,22,21,92,82,72,30.32,30.22,30.07,10,7,2,20,10,23,T,8,Snow,350
2013-2-28,38,29,20,25,21,19,96,78,59,30.30,30.23,30.15,10,7,2,12,6,15,T,6,Snow,121